This demonstration page uses our WeatherBlox Daily Observations layout. Learn more.

38.89511, -77.03637

Hourly Observations for July 9, 2019

Temp ( °F °C ) Dew Point ( °F °C ) Humidity (%) Winds ( mph kmh ) Pressure ( in mb ) Visibility ( mi km ) Precip ( " mm )
12:52 am 00:52 Partly Cloudy 71 21.7 66 18.9 84 84 E 5 7 30.03 1017 10 16.09344 0 0
1:52 am 01:52 Partly Cloudy 71 21.7 65 18.3 81 81 Calm 30.03 1017 10 16.09344 0 0
2:52 am 02:52 Partly Cloudy 71 21.7 66 18.9 84 84 Calm 30.03 1017 10 16.09344 0 0
3:52 am 03:52 Partly Cloudy 69 20.6 64 17.8 84 84 Calm 30.03 1017 10 16.09344 0 0
4:52 am 04:52 Partly Cloudy 68 20 65 18.3 90 90 N 6 9 30.03 1017 10 16.09344 0 0
5:52 am 05:52 Partly Cloudy 68 20 64 17.8 87 87 NNW 6 9 30.06 1018 10 16.09344 0 0
6:52 am 06:52 Partly Cloudy 70 21.1 65 18.3 84 84 Calm 30.06 1018 10 16.09344 0 0
7:52 am 07:52 Mostly Sunny 73 22.8 66 18.9 79 79 NNW 6 9 30.06 1018 10 16.09344 0 0
8:52 am 08:52 Sunny 76 24.4 64 17.8 67 67 VRB 6 9 30.09 1019 10 16.09344 0 0
9:52 am 09:52 Sunny 78 25.6 65 18.3 64 64 Calm 30.09 1019 10 16.09344 0 0
10:52 am 10:52 Mostly Sunny 80 26.7 65 18.3 60 60 Calm 30.09 1019 10 16.09344 0 0
11:52 am 11:52 Partly Cloudy 82 27.8 66 18.9 58 58 SE 5 7 30.09 1019 10 16.09344 0 0
12:52 pm 12:52 Partly Cloudy 83 28.3 66 18.9 57 57 S 7 11 30.09 1019 10 16.09344 0 0
1:52 pm 13:52 Partly Cloudy 83 28.3 65 18.3 55 55 SSE 7 11 30.06 1018 10 16.09344 0 0
2:52 pm 14:52 Partly Cloudy 85 29.4 65 18.3 51 51 SSW 5 7 30.06 1018 10 16.09344 0 0
3:52 pm 15:52 Mostly Sunny 85 29.4 67 19.4 55 55 S 10 17 30.03 1017 10 16.09344 0 0
4:52 pm 16:52 Mostly Sunny 85 29.4 67 19.4 55 55 S 9 15 30.03 1017 10 16.09344 0 0
5:52 pm 17:52 Mostly Sunny 84 28.9 69 20.6 61 61 S 9 15 30.03 1017 10 16.09344 0 0
6:52 pm 18:52 Mostly Cloudy 83 28.3 70 21.1 65 65 S 9 15 30.03 1017 10 16.09344 0 0
7:52 pm 19:52 Partly Cloudy 81 27.2 68 20 65 65 S 8 13 30.03 1017 10 16.09344 0 0
8:52 pm 20:52 Partly Cloudy 79 26.1 67 19.4 67 67 S 9 15 30.03 1017 10 16.09344 0 0
9:52 pm 21:52 Mostly Clear 77 25 69 20.6 77 77 S 7 11 30.06 1018 10 16.09344 0 0
10:52 pm 22:52 Mostly Clear 77 25 66 18.9 69 69 SSW 7 11 30.06 1018 10 16.09344 0 0
11:52 pm 23:52 Mostly Cloudy 75 23.9 68 20 79 79 S 8 13 30.06 1018 10 16.09344 0 0

Powered by AerisWeather